[[{"header":{"parameterUnit":"m.s-1","parameterCategory":2,"la1":30.2991,"la2":30.254,"lo1":-89.0895,"lo2":-89.0444,"dy":0.0017,"dx":0.0017,"nx":28,"ny":28,"refTime":"2024-02-14T03:00:00:Z","depth":"0","parameterNumber":2,"parameterNumberName":"U-component_of_CURRENTS"},"data":[0,0,0,0,0,0,0,0,0,0,0,0,0,0,0,0,0,0,0,0,0,0,0,0,0,0,0,0,0,0,0,0,0,0,0,0,0,0,0,0,0,0,0,0,0,0,0,0,0,0,0,0,0,0,0,0,0,0,-0.2459,-0.2459,0,-0.2391,-0.239,-0.2388,-0.2345,-0.2346,-0.2346,-0.2347,-0.226,-0.2257,-0.2254,0,0,0,0,0,0,0,0,0,0,0,0,0,-0.251,-0.2509,-0.2459,-0.2459,-0.2459,-0.2392,-0.239,-0.2388,-0.2345,-0.2346,-0.2347,-0.2347,-0.2261,-0.2257,-0.2254,0,0,0,0,0,0,0,0,0,0,0,0,0,-0.2461,-0.2508,-0.2459,-0.2436,-0.2434,-0.2392,-0.239,-0.2387,-0.2345,-0.2346,-0.2347,-0.2348,-0.2262,-0.2258,-0.2253,-0.2211,0,0,-0.224,-0.2239,0,0,0,0,0,0,0,0,-0.2464,-0.2458,-0.244,-0.2438,-0.2436,-0.2385,-0.2376,-0.233,-0.2345,-0.237,-0.2347,-0.2348,-0.2305,-0.2297,-0.227,-0.2207,-0.2203,-0.224,-0.2237,-0.2236,-0.2234,0,0,0,0,0,0,0,-0.2468,-0.2461,-0.2424,-0.244,-0.2437,-0.2415,-0.2409,-0.2366,-0.2326,-0.2368,-0.2367,-0.2372,-0.2303,-0.2275,-0.2268,-0.2201,-0.224,-0.2236,-0.2234,-0.2232,-0.2155,-0.2155,0,0,0,0,0,0,-0.2494,-0.2464,-0.2426,-0.2423,-0.2462,-0.2415,-0.2407,-0.2393,-0.2327,-0.2321,-0.2372,-0.2371,-0.2281,-0.2273,-0.2265,-0.2251,-0.2236,-0.2232,-0.2229,-0.2154,-0.2155,-0.2155,0,0,0,0,0,0,-0.2495,-0.2491,-0.2429,-0.245,-0.2442,-0.2414,-0.2399,-0.2392,-0.2364,-0.2332,-0.2324,-0.2353,-0.2282,-0.2271,-0.2237,-0.2246,-0.223,-0.2226,-0.2154,-0.2154,-0.2155,-0.2198,0,0,0,0,0,0,-0.2497,-0.2491,-0.2478,-0.2451,-0.2442,-0.24,-0.2399,-0.239,-0.2371,-0.2369,-0.2313,-0.2306,-0.2282,-0.2244,-0.2233,-0.224,-0.2222,-0.2153,-0.2154,-0.2155,-0.2196,-0.22,-0.2204,0,0,0,0,0,-0.2498,-0.2479,-0.2477,-0.2473,-0.2428,-0.2401,-0.2392,-0.237,-0.237,-0.2348,-0.2326,-0.2307,-0.2243,-0.224,-0.2227,-0.2234,-0.2153,-0.2154,-0.2155,-0.2194,-0.2199,-0.2204,0,0,0,0,0,0,-0.2483,-0.2473,-0.247,-0.2445,-0.2427,-0.2397,-0.2375,-0.2368,-0.2329,-0.2327,-0.2299,-0.2289,-0.2269,-0.2242,-0.224,-0.2217,-0.22,-0.2199,-0.2234,-0.2239,-0.2242,-0.2253,-0.2219,0,0,0,0,0,-0.248,-0.2464,-0.2453,-0.243,-0.2422,-0.2398,-0.2383,-0.2371,-0.2345,-0.2328,-0.23,-0.2275,-0.2261,-0.2243,-0.2217,-0.2189,-0.2183,-0.2191,-0.2195,-0.2198,-0.2199,-0.2201,-0.2206,-0.2159,-0.2159,-0.2159,0,0,-0.2471,-0.2461,-0.2453,-0.2427,-0.2406,-0.2392,-0.2387,-0.2361,-0.2359,-0.2324,-0.2298,-0.228,-0.2257,-0.2239,-0.2228,-0.2217,-0.221,-0.2199,-0.2202,-0.2202,-0.2203,-0.2207,-0.2212,-0.216,-0.216,-0.216,0,0,-0.2437,-0.2432,-0.2404,-0.2399,-0.2382,-0.2376,-0.2374,-0.2347,-0.2341,-0.2317,-0.231,-0.23,-0.2253,-0.2252,-0.2245,-0.2251,-0.2232,-0.2244,-0.2265,-0.2267,-0.2271,-0.2274,-0.2282,-0.2285,-0.2244,-0.2244,-0.2244,0,-0.2423,-0.2393,-0.2391,-0.2371,-0.2377,-0.2375,-0.2361,-0.2353,-0.2323,-0.2328,-0.2315,-0.2288,-0.2265,-0.2272,-0.2279,-0.226,-0.2257,-0.2249,-0.2273,-0.2276,-0.2279,-0.2285,-0.2288,-0.2246,-0.2246,-0.2246,-0.2245,0,-0.2366,-0.2358,-0.2344,-0.233,-0.2334,-0.232,-0.2336,-0.2331,-0.2335,-0.2337,-0.2338,-0.2313,-0.23,-0.23,-0.2287,-0.2303,-0.2295,-0.228,-0.2262,-0.2286,-0.2291,-0.2294,-0.2249,-0.2248,-0.2248,-0.2247,0,0,-0.2287,-0.2303,-0.2295,-0.2309,-0.232,-0.2318,-0.2333,-0.2347,-0.2368,-0.2348,-0.2369,-0.2353,-0.2348,-0.2341,-0.2331,-0.2335,-0.2355,-0.2316,-0.2315,-0.2326,-0.2364,-0.2341,-0.2341,-0.2343,-0.2344,-0.2344,-0.2364,0,-0.2239,-0.2221,-0.2241,-0.2246,-0.2251,-0.229,-0.2314,-0.2338,-0.2358,-0.2377,-0.2382,-0.2386,-0.2364,-0.2361,-0.2364,-0.2359,-0.2363,-0.2351,-0.2337,-0.2337,-0.2315,-0.2344,-0.2231,-0.2238,-0.2366,-0.2367,-0.2367,0,-0.2163,-0.2175,-0.2173,-0.2242,-0.2246,-0.2256,-0.2317,-0.2331,-0.2378,-0.2396,-0.2409,-0.2416,-0.2427,-0.24,-0.2404,-0.2397,-0.2381,-0.2376,-0.2377,-0.234,-0.2318,-0.2232,-0.2238,-0.2205,-0.2371,-0.2371,-0.2371,0,-0.2111,-0.2132,-0.2142,-0.2159,-0.2222,-0.224,-0.227,-0.2327,-0.2355,-0.24,-0.2421,-0.2443,-0.2441,-0.2438,-0.2423,-0.2414,-0.2427,-0.2412,-0.2379,-0.2377,-0.2271,-0.2259,-0.2242,-0.241,-0.241,-0.241,-0.241,0,-0.2057,-0.2063,-0.2121,-0.2127,-0.2157,-0.2212,-0.2246,-0.2284,-0.2342,-0.2373,-0.2414,-0.2437,-0.2448,-0.2457,-0.2443,-0.2422,-0.2438,-0.239,-0.2382,-0.2284,-0.2273,-0.2231,-0.2236,-0.2411,-0.241,-0.241,-0.241,0,-0.1986,-0.2021,-0.2041,-0.2109,-0.2129,-0.2144,-0.2218,-0.2241,-0.2307,-0.2345,-0.2357,-0.2427,-0.2451,-0.2465,-0.2468,-0.2437,-0.2383,-0.2411,-0.2301,-0.228,-0.2222,-0.2234,-0.2215,-0.2157,-0.2388,-0.2387,-0.2387,0,-0.1943,-0.1945,-0.201,-0.2018,-0.204,-0.208,-0.2105,-0.2196,-0.2227,-0.2332,-0.234,-0.2401,-0.2429,-0.2445,-0.2415,-0.2402,-0.2367,-0.228,-0.2242,-0.2211,-0.2219,-0.2221,-0.2172,-0.2121,-0.2119,-0.2117,-0.2115,0,-0.1866,-0.1888,-0.1906,-0.193,-0.1954,-0.1988,-0.2034,-0.2067,-0.2167,-0.222,-0.2285,-0.2326,-0.2371,-0.2328,-0.2322,-0.2286,-0.2213,-0.2238,-0.2221,-0.2028,-0.2011,-0.1951,-0.213,-0.2096,-0.2098,-0.21,-0.2101,-0.2101,-0.1796,-0.1792,-0.1815,-0.1825,-0.1854,-0.1871,-0.1869,-0.1944,-0.1993,-0.2056,-0.2164,-0.2204,-0.2215,-0.2206,-0.2183,-0.207,-0.2114,-0.1984,-0.2009,-0.202,-0.1937,-0.209,-0.204,-0.2042,-0.2043,-0.2044,-0.2045,0,-0.1704,-0.1705,-0.1709,-0.1722,-0.1706,-0.1758,-0.1797,-0.1785,-0.1811,-0.1914,-0.1969,-0.2023,-0.198,-0.1997,-0.1921,-0.1845,-0.1787,-0.179,-0.1744,-0.171,-0.1841,-0.1801,-0.1677,-0.1677,-0.1677,-0.1677,-0.1677,-0.1677,-0.1655,-0.1621,-0.1624,-0.1566,-0.1568,-0.1518,-0.1517,-0.1525,-0.1574,-0.1619,-0.1692,-0.1807,-0.1812,-0.1905,-0.1793,-0.1705,-0.1654,-0.1599,-0.1638,-0.1711,-0.173,-0.1748,-0.171,-0.1569,-0.1569,-0.1416,-0.1415,-0.1415]},{"header":{"parameterUnit":"m.s-1","parameterCategory":2,"la1":30.2991,"la2":30.254,"lo1":-89.0895,"lo2":-89.0444,"dy":0.0017,"dx":0.0017,"nx":28,"ny":28,"refTime":"2024-02-14T03:00:00:Z","depth":"0","parameterNumber":3,"parameterNumberName":"V-component_of_CURRENTS"},"data":[0,0,0,0,0,0,0,0,0,0,0,0,0,0,0,0,0,0,0,0,0,0,0,0,0,0,0,0,0,0,0,0,0,0,0,0,0,0,0,0,0,0,0,0,0,0,0,0,0,0,0,0,0,0,0,0,0,0,-0.0211,-0.0209,0,-0.0098,-0.0097,-0.0096,-0.0049,-0.0049,-0.0049,-0.0049,0.0034,0.0036,0.0039,0,0,0,0,0,0,0,0,0,0,0,0,0,-0.0332,-0.033,-0.0211,-0.0209,-0.0208,-0.0098,-0.0097,-0.0095,-0.0049,-0.0049,-0.0049,-0.0049,0.0033,0.0036,0.0039,0,0,0,0,0,0,0,0,0,0,0,0,0,-0.0257,-0.033,-0.0211,-0.017,-0.0165,-0.0099,-0.0097,-0.0095,-0.0049,-0.0049,-0.0049,-0.0049,0.0033,0.0036,0.0039,0.0063,0,0,0.005,0.0051,0,0,0,0,0,0,0,0,-0.0261,-0.0253,-0.0178,-0.0173,-0.0167,-0.0086,-0.0109,-0.0043,-0.0049,-0.0095,-0.0049,-0.0049,-0.0008,-0.0001,0.0019,0.0067,0.0071,0.005,0.0052,0.0054,0.0055,0,0,0,0,0,0,0,-0.0267,-0.0257,-0.0168,-0.0176,-0.0169,-0.0139,-0.0129,-0.0096,-0.0054,-0.0091,-0.0087,-0.0072,-0.0005,0.0015,0.0021,0.0072,0.005,0.0053,0.0055,0.0057,0.0141,0.0141,0,0,0,0,0,0,-0.028,-0.0262,-0.0171,-0.0164,-0.0214,-0.0137,-0.0126,-0.0113,-0.0053,-0.0043,-0.0072,-0.007,0.0009,0.0017,0.0024,0.0051,0.0054,0.0057,0.0059,0.0141,0.0141,0.0142,0,0,0,0,0,0,-0.0283,-0.0273,-0.0176,-0.0209,-0.0195,-0.0135,-0.0121,-0.0111,-0.009,-0.0038,-0.0029,-0.0061,0.001,0.0019,0.0054,0.0055,0.0059,0.0062,0.0141,0.0141,0.0141,0.0108,0,0,0,0,0,0,-0.0287,-0.0275,-0.0267,-0.021,-0.0193,-0.0141,-0.012,-0.0109,-0.0079,-0.0076,-0.0026,-0.0018,0.001,0.0049,0.0058,0.0059,0.0064,0.0141,0.0141,0.0141,0.0109,0.0107,0.0105,0,0,0,0,0,-0.0292,-0.0283,-0.0268,-0.0256,-0.0186,-0.0141,-0.013,-0.0088,-0.0079,-0.007,-0.0035,-0.0019,0.0057,0.0052,0.0062,0.0065,0.0141,0.0141,0.0141,0.011,0.0107,0.0106,0,0,0,0,0,0,-0.0328,-0.0275,-0.0258,-0.0233,-0.0192,-0.0133,-0.0117,-0.0091,-0.0055,-0.0054,-0.0012,-0.0001,0.0028,0.0052,0.0046,0.009,0.0099,0.0102,0.0072,0.007,0.0068,0.0054,0.0067,0,0,0,0,0,-0.0333,-0.0316,-0.0262,-0.0242,-0.0225,-0.0173,-0.0148,-0.0122,-0.0081,-0.0065,-0.003,0.0006,0.0039,0.0058,0.009,0.0118,0.0142,0.0124,0.0123,0.0121,0.0117,0.0155,0.0157,0.0143,0.0143,0.0143,0,0,-0.0341,-0.031,-0.0299,-0.0249,-0.0215,-0.0197,-0.0159,-0.0127,-0.011,-0.0062,-0.0034,0.0002,0.0045,0.0075,0.009,0.0095,0.0139,0.0122,0.012,0.0116,0.0156,0.0157,0.0158,0.0143,0.0143,0.0143,0,0,-0.0353,-0.0323,-0.0316,-0.0287,-0.024,-0.0211,-0.0206,-0.0151,-0.0125,-0.009,-0.0054,-0.0017,0.0032,0.0067,0.009,0.0099,0.0127,0.0105,0.0088,0.0126,0.0127,0.0129,0.0163,0.0168,0.0105,0.0105,0.0105,0,-0.0365,-0.0349,-0.0306,-0.0292,-0.0274,-0.0225,-0.0219,-0.0183,-0.0124,-0.0103,-0.009,-0.0009,0.0028,0.007,0.0074,0.0095,0.0118,0.0092,0.0123,0.0125,0.0127,0.0162,0.0168,0.0104,0.0104,0.0104,0.0104,0,-0.0368,-0.036,-0.0354,-0.0328,-0.0303,-0.0289,-0.024,-0.022,-0.0189,-0.0146,-0.0097,-0.0038,0.0008,0.0028,0.0056,0.009,0.0103,0.0115,0.0125,0.0126,0.0163,0.017,0.0101,0.0102,0.0102,0.0103,0,0,-0.0385,-0.0364,-0.0363,-0.0369,-0.0323,-0.031,-0.0287,-0.0248,-0.024,-0.0173,-0.0147,-0.0075,-0.0038,-0.001,0.0035,0.0073,0.0113,0.0096,0.0099,0.0125,0.0194,0.0236,0.0247,0.013,0.0131,0.0132,0.0215,0,-0.0404,-0.0411,-0.0384,-0.0397,-0.0401,-0.0359,-0.0342,-0.0299,-0.0261,-0.0224,-0.0143,-0.0099,-0.0052,-0.003,0.0017,0.0089,0.0129,0.009,0.0194,0.0197,0.023,0.0255,0.0274,0.0353,0.0221,0.0222,0.0223,0,-0.0412,-0.0422,-0.044,-0.0447,-0.0443,-0.0438,-0.0421,-0.0399,-0.033,-0.0292,-0.0229,-0.0165,-0.0084,-0.0053,0.0074,0.0046,0.0114,0.017,0.0175,0.0229,0.0251,0.0331,0.037,0.0493,0.0233,0.0233,0.0232,0,-0.0454,-0.0462,-0.0488,-0.0486,-0.0477,-0.0477,-0.047,-0.0419,-0.0405,-0.0333,-0.0313,-0.0206,-0.0151,-0.0051,0.008,0.0074,0.0214,0.0221,0.0324,0.0327,0.0372,0.0378,0.0538,0.0302,0.0302,0.0302,0.0302,0,-0.0484,-0.0506,-0.0515,-0.0529,-0.0562,-0.0527,-0.0543,-0.0518,-0.0472,-0.0457,-0.0351,-0.0316,-0.015,-0.0044,0.0066,0.0224,0.0208,0.0328,0.0356,0.0362,0.0366,0.0497,0.0541,0.0305,0.0304,0.0304,0.0303,0,-0.0521,-0.0523,-0.0565,-0.0578,-0.0583,-0.0607,-0.0604,-0.0615,-0.0558,-0.0539,-0.0513,-0.0386,-0.0237,-0.0069,0.0105,0.0209,0.0431,0.0405,0.0403,0.0429,0.0636,0.0676,0.086,0.0925,0.0531,0.0532,0.0534,0,-0.0539,-0.0563,-0.0613,-0.0646,-0.0655,-0.0681,-0.0697,-0.066,-0.0665,-0.0585,-0.0579,-0.0427,-0.0314,-0.0029,0.0194,0.0415,0.0505,0.055,0.0548,0.0664,0.0729,0.0762,0.0805,0.0595,0.0597,0.0598,0.0599,0,-0.0582,-0.0601,-0.0641,-0.0712,-0.0749,-0.0792,-0.0807,-0.0822,-0.0772,-0.0743,-0.0673,-0.0574,-0.0266,0.0014,0.0324,0.0448,0.0646,0.0586,0.0711,0.0802,0.0844,0.0913,0.052,0.0612,0.0611,0.061,0.0609,0.0609,-0.0613,-0.066,-0.0715,-0.0781,-0.0834,-0.0889,-0.0922,-0.093,-0.0935,-0.0877,-0.0754,-0.0588,-0.014,0.031,0.0469,0.0807,0.077,0.0889,0.0931,0.0956,0.102,0.0655,0.0774,0.0774,0.0773,0.0773,0.0773,0,-0.0651,-0.0705,-0.0777,-0.086,-0.0932,-0.0938,-0.0986,-0.1006,-0.1023,-0.0916,-0.0813,-0.0355,0.0072,0.0479,0.0988,0.1151,0.1177,0.1215,0.1267,0.1294,0.0983,0.0987,0.1151,0.1151,0.1151,0.115,0.115,0.115,-0.0674,-0.0753,-0.0797,-0.0924,-0.0981,-0.106,-0.1091,-0.1106,-0.104,-0.086,-0.0622,-0.0402,0.0199,0.1026,0.1474,0.1489,0.1616,0.1589,0.1664,0.1446,0.1419,0.1392,0.1409,0.1659,0.1659,0.196,0.1963,0.1966]}],[{"header":{"parameterUnit":"m.s-1","parameterCategory":2,"la1":30.2991,"la2":30.254,"lo1":-89.0895,"lo2":-89.0444,"dy":0.0017,"dx":0.0017,"nx":28,"ny":28,"refTime":"2024-02-14T03:00:00:Z","depth":"2","parameterNumber":2,"parameterNumberName":"U-component_of_CURRENTS"},"data":[0,0,0,0,0,0,0,0,0,0,0,0,0,0,0,0,0,0,0,0,0,0,0,0,0,0,0,0,0,0,0,0,0,0,0,0,0,0,0,0,0,0,0,0,0,0,0,0,0,0,0,0,0,0,0,0,0,0,-0.1976,-0.1976,0,-0.1938,-0.1938,-0.1938,-0.1938,-0.1939,-0.1939,-0.194,-0.1903,-0.1902,-0.1901,0,0,0,0,0,0,0,0,0,0,0,0,0,-0.201,-0.201,-0.1976,-0.1976,-0.1975,-0.1938,-0.1938,-0.1938,-0.1938,-0.1939,-0.1939,-0.194,-0.1904,-0.1902,-0.19,0,0,0,0,0,0,0,0,0,0,0,0,0,-0.1988,-0.201,-0.1977,-0.197,-0.1969,-0.1939,-0.1938,-0.1938,-0.1938,-0.1939,-0.1939,-0.194,-0.1904,-0.1902,-0.19,-0.1876,0,0,-0.1894,-0.1893,0,0,0,0,0,0,0,0,-0.1989,-0.1987,-0.1972,-0.197,-0.1969,-0.1942,-0.1936,-0.1917,-0.1938,-0.1951,-0.194,-0.194,-0.1915,-0.1912,-0.1906,-0.1875,-0.1873,-0.1894,-0.1893,-0.1892,-0.1891,0,0,0,0,0,0,0,-0.1991,-0.1988,-0.1963,-0.1971,-0.1969,-0.1955,-0.1953,-0.1933,-0.1932,-0.195,-0.195,-0.1943,-0.1915,-0.1908,-0.1905,-0.1873,-0.1894,-0.1892,-0.1891,-0.189,-0.1868,-0.1868,0,0,0,0,0,0,-0.1994,-0.199,-0.1964,-0.1962,-0.1979,-0.1954,-0.1952,-0.1952,-0.1932,-0.1929,-0.1943,-0.1943,-0.1911,-0.1907,-0.1904,-0.1913,-0.1892,-0.189,-0.1889,-0.1867,-0.1868,-0.1869,0,0,0,0,0,0,-0.1995,-0.1992,-0.1966,-0.1973,-0.1969,-0.1953,-0.1953,-0.1951,-0.195,-0.1926,-0.1923,-0.1945,-0.1911,-0.1906,-0.1899,-0.191,-0.1889,-0.1887,-0.1867,-0.1867,-0.1868,-0.1907,0,0,0,0,0,0,-0.1996,-0.1993,-0.1996,-0.1974,-0.1968,-0.1957,-0.1952,-0.1949,-0.1944,-0.1944,-0.1926,-0.1923,-0.1911,-0.1903,-0.1897,-0.1907,-0.1886,-0.1866,-0.1867,-0.1868,-0.1905,-0.1909,-0.1913,0,0,0,0,0,-0.1997,-0.1988,-0.1996,-0.1993,-0.1972,-0.1957,-0.1954,-0.1945,-0.1943,-0.1946,-0.1938,-0.1924,-0.1906,-0.1901,-0.1895,-0.1905,-0.1865,-0.1867,-0.1868,-0.1903,-0.1908,-0.1913,0,0,0,0,0,0,-0.1995,-0.1987,-0.1995,-0.1983,-0.198,-0.1957,-0.1948,-0.1947,-0.1941,-0.194,-0.1925,-0.1922,-0.1922,-0.1906,-0.1901,-0.1903,-0.1886,-0.1886,-0.1915,-0.1919,-0.1923,-0.1929,-0.1884,0,0,0,0,0,-0.1999,-0.1993,-0.1989,-0.1978,-0.1978,-0.1967,-0.196,-0.1957,-0.1946,-0.1944,-0.1934,-0.1924,-0.192,-0.1915,-0.1905,-0.1898,-0.1892,-0.1903,-0.1907,-0.191,-0.1912,-0.1915,-0.1919,-0.1873,-0.1873,-0.1873,0,0,-0.1989,-0.1985,-0.198,-0.1978,-0.197,-0.1972,-0.1965,-0.1952,-0.1961,-0.1939,-0.1943,-0.1934,-0.1922,-0.1923,-0.1921,-0.1912,-0.1922,-0.1912,-0.1915,-0.1915,-0.1916,-0.1921,-0.1925,-0.1874,-0.1874,-0.1874,0,0,-0.1963,-0.1971,-0.1962,-0.1969,-0.1966,-0.1966,-0.1968,-0.1959,-0.1965,-0.1965,-0.1959,-0.196,-0.1943,-0.1945,-0.1942,-0.1959,-0.1942,-0.1956,-0.1977,-0.198,-0.1984,-0.1987,-0.1991,-0.1995,-0.1957,-0.1957,-0.1957,0,-0.196,-0.195,-0.1955,-0.1957,-0.1963,-0.1969,-0.1971,-0.1978,-0.197,-0.1979,-0.1972,-0.1968,-0.1957,-0.1969,-0.1978,-0.1968,-0.1966,-0.1961,-0.1985,-0.1988,-0.1991,-0.1994,-0.1998,-0.1959,-0.1959,-0.1958,-0.1958,0,-0.1927,-0.1936,-0.1929,-0.1944,-0.1955,-0.1951,-0.1974,-0.1985,-0.1992,-0.2,-0.2014,-0.2003,-0.2001,-0.2003,-0.1994,-0.2011,-0.2003,-0.1991,-0.1974,-0.1998,-0.2,-0.2003,-0.1962,-0.1961,-0.196,-0.196,0,0,-0.1875,-0.1904,-0.1902,-0.1925,-0.1952,-0.1956,-0.1981,-0.2005,-0.2028,-0.203,-0.2053,-0.2051,-0.2048,-0.2045,-0.2037,-0.2043,-0.2061,-0.2026,-0.2025,-0.2031,-0.207,-0.2042,-0.2042,-0.2052,-0.2053,-0.2053,-0.2067,0,-0.1851,-0.1861,-0.1881,-0.1903,-0.1918,-0.1955,-0.1984,-0.2014,-0.2038,-0.2065,-0.2071,-0.2084,-0.2065,-0.2066,-0.2069,-0.2067,-0.2069,-0.2059,-0.2045,-0.2045,-0.2018,-0.2044,-0.1868,-0.1863,-0.2069,-0.207,-0.207,0,-0.1807,-0.1827,-0.1843,-0.1908,-0.1917,-0.1936,-0.1994,-0.2017,-0.2068,-0.2089,-0.2105,-0.2115,-0.2129,-0.2105,-0.2109,-0.2104,-0.2087,-0.2082,-0.2082,-0.2043,-0.2021,-0.1871,-0.186,-0.2074,-0.2074,-0.2073,-0.2073,0,-0.176,-0.1802,-0.1818,-0.1837,-0.1904,-0.1925,-0.1957,-0.2015,-0.2046,-0.2096,-0.2121,-0.2144,-0.2148,-0.2143,-0.213,-0.2121,-0.2134,-0.2118,-0.2078,-0.2076,-0.1915,-0.1899,-0.2114,-0.2114,-0.2114,-0.2114,-0.2114,0,-0.1722,-0.1735,-0.18,-0.181,-0.1844,-0.19,-0.1938,-0.1979,-0.2041,-0.2074,-0.2117,-0.2142,-0.2156,-0.2166,-0.2149,-0.2125,-0.2144,-0.2088,-0.2079,-0.1925,-0.191,-0.2081,-0.2077,-0.2114,-0.2114,-0.2114,-0.2114,0,-0.1656,-0.1697,-0.1724,-0.1796,-0.1819,-0.1837,-0.1915,-0.1942,-0.201,-0.2053,-0.2068,-0.2139,-0.2159,-0.2172,-0.2172,-0.214,-0.2127,-0.2107,-0.1932,-0.1903,-0.2064,-0.2062,-0.2073,-0.2072,-0.2072,-0.2071,-0.2071,0,-0.1618,-0.1624,-0.1695,-0.1708,-0.1736,-0.178,-0.1809,-0.1902,-0.1934,-0.2042,-0.2052,-0.2112,-0.213,-0.214,-0.2104,-0.2081,-0.2115,-0.1898,-0.185,-0.2071,-0.2061,-0.206,-0.2059,-0.1653,-0.1649,-0.1645,-0.1643,0,-0.1546,-0.1571,-0.1594,-0.1627,-0.1657,-0.1697,-0.1748,-0.1777,-0.188,-0.193,-0.1992,-0.2025,-0.2058,-0.1967,-0.1952,-0.1906,-0.1894,-0.1835,-0.2096,-0.1702,-0.1678,-0.1668,-0.1679,-0.1615,-0.1617,-0.162,-0.1621,-0.1622,-0.148,-0.1479,-0.151,-0.1531,-0.1566,-0.1589,-0.1589,-0.166,-0.1705,-0.1757,-0.1859,-0.1857,-0.1865,-0.1771,-0.1701,-0.1641,-0.1768,-0.1662,-0.167,-0.1681,-0.1642,-0.1619,-0.1537,-0.154,-0.1542,-0.1543,-0.1545,0,-0.139,-0.14,-0.1413,-0.1437,-0.1431,-0.1488,-0.1526,-0.151,-0.1526,-0.1595,-0.1635,-0.1513,-0.147,-0.1487,-0.136,-0.1346,-0.1307,-0.1279,-0.121,-0.1239,-0.1265,-0.1202,-0.0982,-0.0981,-0.0979,-0.0978,0,0,-0.1343,-0.1319,-0.1328,-0.1291,-0.1306,-0.1269,-0.1268,-0.1264,-0.1286,-0.1267,-0.1271,-0.1398,-0.1445,-0.1217,-0.1161,-0.1051,-0.113,-0.0998,-0.1446,-0.1393,-0.1417,-0.1481,-0.1418,0,0,0,0,0]},{"header":{"parameterUnit":"m.s-1","parameterCategory":2,"la1":30.2991,"la2":30.254,"lo1":-89.0895,"lo2":-89.0444,"dy":0.0017,"dx":0.0017,"nx":28,"ny":28,"refTime":"2024-02-14T03:00:00:Z","depth":"2","parameterNumber":3,"parameterNumberName":"V-component_of_CURRENTS"},"data":[0,0,0,0,0,0,0,0,0,0,0,0,0,0,0,0,0,0,0,0,0,0,0,0,0,0,0,0,0,0,0,0,0,0,0,0,0,0,0,0,0,0,0,0,0,0,0,0,0,0,0,0,0,0,0,0,0,0,-0.02,-0.0199,0,-0.0103,-0.0102,-0.0101,-0.006,-0.006,-0.006,-0.006,0.0021,0.0023,0.0026,0,0,0,0,0,0,0,0,0,0,0,0,0,-0.0294,-0.0293,-0.02,-0.0199,-0.0198,-0.0103,-0.0102,-0.0101,-0.006,-0.006,-0.006,-0.006,0.002,0.0023,0.0026,0,0,0,0,0,0,0,0,0,0,0,0,0,-0.0232,-0.0293,-0.02,-0.0165,-0.0161,-0.0104,-0.0102,-0.0101,-0.006,-0.006,-0.006,-0.006,0.002,0.0023,0.0026,0.005,0,0,0.0036,0.0038,0,0,0,0,0,0,0,0,-0.0235,-0.0229,-0.0172,-0.0167,-0.0163,-0.0093,-0.0105,-0.0051,-0.006,-0.0099,-0.006,-0.006,-0.0018,-0.0011,0.0006,0.0054,0.0057,0.0037,0.0039,0.004,0.0041,0,0,0,0,0,0,0,-0.024,-0.0232,-0.0163,-0.017,-0.0165,-0.0135,-0.0127,-0.0094,-0.006,-0.0096,-0.0092,-0.008,-0.0016,0.0003,0.0008,0.0058,0.0037,0.004,0.0042,0.0043,0.0123,0.0124,0,0,0,0,0,0,-0.0253,-0.0236,-0.0166,-0.016,-0.0199,-0.0133,-0.0124,-0.0116,-0.006,-0.0051,-0.008,-0.0078,-0.0003,0.0004,0.0011,0.0037,0.004,0.0043,0.0045,0.0123,0.0123,0.0124,0,0,0,0,0,0,-0.0255,-0.0248,-0.017,-0.0195,-0.0183,-0.0132,-0.0122,-0.0114,-0.0095,-0.0047,-0.0039,-0.007,-0.0003,0.0007,0.004,0.004,0.0045,0.0048,0.0123,0.0123,0.0124,0.0091,0,0,0,0,0,0,-0.0258,-0.0249,-0.0244,-0.0196,-0.0182,-0.014,-0.0122,-0.0112,-0.0087,-0.0084,-0.0036,-0.0028,-0.0002,0.0035,0.0044,0.0045,0.0051,0.0123,0.0123,0.0124,0.0092,0.009,0.0088,0,0,0,0,0,-0.0262,-0.0256,-0.0245,-0.0236,-0.0178,-0.014,-0.013,-0.0094,-0.0086,-0.0078,-0.0045,-0.003,0.0042,0.0038,0.0048,0.005,0.0123,0.0123,0.0123,0.0093,0.009,0.0088,0,0,0,0,0,0,-0.0289,-0.0249,-0.0237,-0.0217,-0.0184,-0.0133,-0.0118,-0.0096,-0.0063,-0.0062,-0.0022,-0.0012,0.0015,0.0039,0.0033,0.0074,0.0083,0.0085,0.0056,0.0054,0.0052,0.004,0.0053,0,0,0,0,0,-0.0295,-0.0283,-0.0239,-0.0224,-0.021,-0.0166,-0.0145,-0.0123,-0.0087,-0.0072,-0.0039,-0.0005,0.0025,0.0043,0.0073,0.01,0.0124,0.0106,0.0104,0.0102,0.0099,0.0137,0.0138,0.0124,0.0124,0.0124,0,0,-0.0301,-0.0277,-0.0269,-0.0229,-0.0202,-0.0188,-0.0154,-0.0127,-0.0113,-0.0068,-0.0042,-0.0009,0.003,0.0058,0.0072,0.0078,0.0119,0.0103,0.0101,0.0098,0.0137,0.0139,0.014,0.0125,0.0125,0.0125,0,0,-0.0311,-0.0288,-0.0285,-0.0261,-0.0223,-0.0199,-0.0195,-0.0148,-0.0125,-0.0094,-0.0061,-0.0027,0.0019,0.005,0.0071,0.0078,0.0107,0.0084,0.0069,0.0106,0.0107,0.0108,0.0141,0.0146,0.0085,0.0085,0.0085,0,-0.032,-0.0311,-0.0276,-0.0267,-0.0253,-0.0211,-0.0208,-0.0177,-0.0124,-0.0106,-0.0094,-0.002,0.0015,0.0053,0.0055,0.0074,0.0097,0.0073,0.0103,0.0105,0.0107,0.014,0.0146,0.0083,0.0083,0.0083,0.0084,0,-0.0325,-0.0322,-0.0318,-0.0301,-0.028,-0.0269,-0.0228,-0.021,-0.0183,-0.0146,-0.0101,-0.0047,-0.0005,0.0013,0.0038,0.007,0.0082,0.0094,0.0106,0.0106,0.0142,0.0148,0.0081,0.0081,0.0082,0.0082,0,0,-0.0341,-0.0329,-0.0328,-0.0337,-0.0299,-0.0289,-0.027,-0.0238,-0.0231,-0.017,-0.0147,-0.0083,-0.0048,-0.0022,0.0019,0.0055,0.0094,0.0077,0.008,0.0106,0.0173,0.02,0.0209,0.0111,0.0111,0.0112,0.0192,0,-0.036,-0.0372,-0.035,-0.0365,-0.0372,-0.0336,-0.0323,-0.0286,-0.0251,-0.0217,-0.0144,-0.0104,-0.0061,-0.0041,0.0004,0.0071,0.0109,0.0071,0.0173,0.0176,0.0196,0.0217,0.0185,0.0255,0.0199,0.02,0.02,0,-0.0371,-0.0383,-0.0403,-0.0414,-0.0411,-0.0409,-0.0396,-0.0378,-0.0315,-0.0281,-0.0222,-0.0163,-0.0088,-0.0059,0.006,0.0034,0.0098,0.0151,0.0155,0.0195,0.0214,0.0246,0.0269,0.0211,0.0211,0.021,0.0209,0,-0.0409,-0.0421,-0.0448,-0.0446,-0.0443,-0.0446,-0.0441,-0.0396,-0.0385,-0.0318,-0.0298,-0.0198,-0.0147,-0.0053,0.0068,0.0063,0.0195,0.0203,0.0288,0.029,0.0291,0.0292,0.028,0.028,0.028,0.028,0.0279,0,-0.0437,-0.046,-0.0472,-0.0486,-0.052,-0.0491,-0.0508,-0.0486,-0.0444,-0.0432,-0.0334,-0.03,-0.0144,-0.0046,0.0056,0.0198,0.0191,0.0291,0.0316,0.0279,0.0278,0.026,0.0257,0.0283,0.0282,0.0281,0.0281,0,-0.047,-0.0476,-0.0517,-0.0534,-0.054,-0.0563,-0.0564,-0.0575,-0.0524,-0.0506,-0.0483,-0.0364,-0.0229,-0.0074,0.0089,0.0184,0.0313,0.0361,0.0309,0.0327,0.0385,0.0379,0.0464,0.0466,0.0468,0.0469,0.047,0,-0.0488,-0.0512,-0.0562,-0.0594,-0.0604,-0.063,-0.0648,-0.0617,-0.062,-0.0549,-0.0543,-0.0406,-0.0305,-0.0045,0.015,0.0349,0.035,0.043,0.042,0.039,0.0406,0.0397,0.039,0.0408,0.0408,0.0408,0.0409,0,-0.0527,-0.0547,-0.0585,-0.0654,-0.0691,-0.0732,-0.0749,-0.0761,-0.0719,-0.0693,-0.063,-0.0542,-0.0274,-0.0048,0.0226,0.0331,0.0399,0.0444,0.0434,0.0365,0.0343,0.0356,0.0349,0.0412,0.0411,0.0411,0.0411,0.0411,-0.0556,-0.06,-0.0654,-0.0717,-0.0768,-0.082,-0.085,-0.0857,-0.0861,-0.0807,-0.0705,-0.0557,-0.0306,0.0072,0.0272,0.0456,0.0448,0.0492,0.0488,0.0484,0.0462,0.0444,0.0527,0.0528,0.0528,0.0528,0.0529,0,-0.0589,-0.0641,-0.0711,-0.0788,-0.0854,-0.0864,-0.0908,-0.0921,-0.0933,-0.0842,-0.0753,-0.0497,-0.0218,0.0041,0.0339,0.052,0.0499,0.0541,0.0483,0.0479,0.0476,0.0451,0.0515,0.0516,0.0516,0.0517,0,0,-0.061,-0.0685,-0.0727,-0.0842,-0.0897,-0.0971,-0.0999,-0.1004,-0.0945,-0.0873,-0.0752,-0.0548,-0.0219,-0.0009,0.0226,0.0384,0.0381,0.039,0.038,0.0281,0.0276,0.0425,0.0381,0,0,0,0,0]}],[{"header":{"parameterUnit":"m.s-1","parameterCategory":2,"la1":30.2991,"la2":30.254,"lo1":-89.0895,"lo2":-89.0444,"dy":0.0017,"dx":0.0017,"nx":28,"ny":28,"refTime":"2024-02-14T03:00:00:Z","depth":"4","parameterNumber":2,"parameterNumberName":"U-component_of_CURRENTS"},"data":[0,0,0,0,0,0,0,0,0,0,0,0,0,0,0,0,0,0,0,0,0,0,0,0,0,0,0,0,0,0,0,0,0,0,0,0,0,0,0,0,0,0,0,0,0,0,0,0,0,0,0,0,0,0,0,0,0,0,-0.1245,-0.1246,0,-0.1328,-0.1329,-0.133,-0.1375,-0.1375,-0.1375,-0.1375,-0.1426,-0.1427,-0.1428,0,0,0,0,0,0,0,0,0,0,0,0,0,-0.1138,-0.114,-0.1245,-0.1246,-0.1247,-0.1328,-0.1329,-0.133,-0.1375,-0.1375,-0.1375,-0.1375,-0.1425,-0.1427,-0.1428,0,0,0,0,0,0,0,0,0,0,0,0,0,-0.1198,-0.114,-0.1245,-0.128,-0.1284,-0.1328,-0.1329,-0.1331,-0.1374,-0.1375,-0.1375,-0.1375,-0.1425,-0.1426,-0.1428,-0.1432,0,0,-0.1433,-0.1434,0,0,0,0,0,0,0,0,-0.1194,-0.1201,-0.1274,-0.1278,-0.1282,-0.1343,-0.131,-0.1363,-0.1374,-0.1339,-0.1375,-0.1376,-0.1396,-0.14,-0.1413,-0.1434,-0.1436,-0.1433,-0.1434,-0.1435,-0.1436,0,0,0,0,0,0,0,-0.119,-0.1198,-0.1276,-0.1275,-0.128,-0.1297,-0.1306,-0.1321,-0.1362,-0.1342,-0.1346,-0.1357,-0.1398,-0.1411,-0.1414,-0.1437,-0.1433,-0.1435,-0.1436,-0.1437,-0.1511,-0.1512,0,0,0,0,0,0,-0.1182,-0.1194,-0.1274,-0.1279,-0.124,-0.1299,-0.1308,-0.1322,-0.1363,-0.137,-0.1357,-0.1359,-0.1408,-0.1412,-0.1416,-0.1473,-0.1435,-0.1437,-0.1438,-0.1511,-0.1512,-0.1513,0,0,0,0,0,0,-0.1179,-0.1188,-0.127,-0.124,-0.1251,-0.13,-0.1315,-0.1323,-0.136,-0.1375,-0.1382,-0.1388,-0.1409,-0.1414,-0.1453,-0.1473,-0.1438,-0.1439,-0.1509,-0.1511,-0.1512,-0.1555,0,0,0,0,0,0,-0.1176,-0.1187,-0.1201,-0.1239,-0.1253,-0.1317,-0.1315,-0.1325,-0.1366,-0.1371,-0.1404,-0.1408,-0.1409,-0.145,-0.1454,-0.1475,-0.144,-0.1508,-0.151,-0.1512,-0.1552,-0.1557,-0.1562,0,0,0,0,0,-0.1172,-0.1193,-0.1201,-0.1211,-0.1268,-0.1318,-0.1328,-0.1361,-0.1368,-0.1394,-0.1414,-0.1408,-0.1464,-0.1453,-0.1457,-0.1479,-0.1507,-0.151,-0.1512,-0.155,-0.1556,-0.1562,0,0,0,0,0,0,-0.1159,-0.12,-0.1211,-0.1244,-0.1286,-0.1327,-0.1358,-0.1375,-0.1412,-0.1421,-0.1425,-0.1431,-0.147,-0.147,-0.1457,-0.1505,-0.1483,-0.1486,-0.151,-0.1516,-0.1521,-0.1519,-0.1442,0,0,0,0,0,-0.116,-0.1189,-0.1228,-0.1261,-0.1283,-0.1322,-0.1349,-0.1374,-0.1408,-0.1426,-0.1446,-0.1464,-0.1479,-0.1495,-0.151,-0.1541,-0.1533,-0.1556,-0.1561,-0.1566,-0.1567,-0.1573,-0.1579,-0.152,-0.152,-0.152,0,0,-0.1163,-0.1193,-0.1208,-0.1261,-0.1296,-0.1333,-0.1341,-0.1395,-0.1425,-0.1424,-0.1475,-0.1486,-0.1491,-0.1526,-0.1542,-0.1532,-0.158,-0.1568,-0.1572,-0.1571,-0.1576,-0.1582,-0.1587,-0.1521,-0.1521,-0.1521,0,0,-0.1188,-0.1214,-0.1246,-0.1281,-0.134,-0.1362,-0.1381,-0.1433,-0.146,-0.1505,-0.1507,-0.1533,-0.1565,-0.1572,-0.1577,-0.1618,-0.1605,-0.1625,-0.1651,-0.1658,-0.1663,-0.1667,-0.1668,-0.1672,-0.1628,-0.1628,-0.1628,0,-0.1193,-0.1231,-0.1265,-0.1307,-0.1335,-0.1375,-0.1411,-0.1446,-0.1504,-0.1524,-0.1529,-0.1575,-0.1583,-0.1611,-0.1626,-0.163,-0.1629,-0.1628,-0.1664,-0.1668,-0.1671,-0.1672,-0.1675,-0.1631,-0.163,-0.163,-0.163,0,-0.1235,-0.127,-0.1297,-0.1352,-0.1389,-0.1432,-0.1475,-0.1516,-0.1544,-0.157,-0.1617,-0.1632,-0.1653,-0.1662,-0.1659,-0.1689,-0.168,-0.1668,-0.1647,-0.168,-0.1678,-0.1681,-0.1634,-0.1633,-0.1632,-0.1632,0,0,-0.1229,-0.1307,-0.1318,-0.1345,-0.1413,-0.1447,-0.1499,-0.1549,-0.1586,-0.1631,-0.1669,-0.1697,-0.1706,-0.1711,-0.1713,-0.1723,-0.1749,-0.1711,-0.1711,-0.1711,-0.1765,-0.1664,-0.1657,-0.1746,-0.1747,-0.1747,-0.1756,0,-0.125,-0.1315,-0.1353,-0.1412,-0.1442,-0.149,-0.1534,-0.1587,-0.1628,-0.1678,-0.1698,-0.1735,-0.1724,-0.174,-0.175,-0.1753,-0.1759,-0.1748,-0.1735,-0.1735,-0.1639,-0.1658,-0.1749,-0.1758,-0.1758,-0.1759,-0.1759,0,-0.1266,-0.1309,-0.1363,-0.1431,-0.1452,-0.1494,-0.1563,-0.1608,-0.1677,-0.1712,-0.1749,-0.1771,-0.18,-0.1783,-0.1799,-0.1795,-0.1782,-0.1778,-0.1778,-0.1669,-0.1639,-0.1718,-0.1764,-0.1764,-0.1763,-0.1763,-0.1763,0,-0.1222,-0.1308,-0.1347,-0.1372,-0.1459,-0.1497,-0.1543,-0.1618,-0.1658,-0.1732,-0.1766,-0.1806,-0.1826,-0.1827,-0.1821,-0.1816,-0.183,-0.1817,-0.1713,-0.1706,-0.1776,-0.1772,-0.1818,-0.1818,-0.1818,-0.1818,-0.1818,0,-0.1202,-0.1237,-0.1335,-0.1355,-0.1412,-0.148,-0.1542,-0.1597,-0.1674,-0.1713,-0.1775,-0.1801,-0.1839,-0.1851,-0.1838,-0.1781,-0.1839,-0.1716,-0.1699,-0.1795,-0.1792,-0.1779,-0.1774,-0.1818,-0.1818,-0.1818,-0.1818,0,-0.1134,-0.1198,-0.1251,-0.1353,-0.139,-0.1427,-0.1533,-0.157,-0.1654,-0.1705,-0.1729,-0.1805,-0.1816,-0.1838,-0.1843,-0.1784,-0.1754,-0.1717,-0.1823,-0.1813,-0.1625,-0.1622,-0.1601,-0.1597,-0.1594,-0.1592,-0.159,0,-0.1098,-0.1119,-0.1233,-0.1266,-0.1315,-0.1388,-0.1432,-0.154,-0.1574,-0.1688,-0.1694,-0.1753,-0.1785,-0.1708,-0.1746,-0.1713,-0.1688,-0.1662,-0.1635,-0.1615,-0.1602,-0.1604,-0.1606,-0.1585,-0.1584,-0.1583,-0.1583,0,-0.1026,-0.1078,-0.1121,-0.1191,-0.1249,-0.1306,-0.1378,-0.1397,-0.1506,-0.1603,-0.1614,-0.1623,-0.1635,-0.1635,-0.1619,-0.1595,-0.1676,-0.163,-0.1636,-0.161,-0.1596,-0.1586,-0.1591,-0.1572,-0.1574,-0.1575,-0.1575,0,-0.097,-0.0984,-0.105,-0.1099,-0.1168,-0.1196,-0.1253,-0.1295,-0.1347,-0.1475,-0.1476,-0.1541,-0.1618,-0.1573,-0.1563,-0.1531,-0.1504,-0.1448,-0.1463,-0.1475,-0.1429,-0.1392,-0.1288,0,0,0,0,0,-0.0906,-0.0914,-0.0953,-0.1005,-0.1067,-0.1109,-0.1201,-0.126,-0.1374,-0.1341,-0.1406,-0.1412,-0.1407,-0.1446,-0.1383,-0.1504,-0.1508,-0.1426,-0.1451,-0.1515,-0.1527,-0.1484,0,0,0,0,0,0,-0.0864,-0.0896,-0.0917,-0.0913,-0.0928,-0.0988,-0.1041,-0.1122,-0.1113,-0.1231,-0.1231,-0.1323,-0.1333,-0.1415,-0.1352,-0.1362,-0.1349,-0.1474,-0.1471,-0.1508,-0.1519,-0.1528,-0.1489,0,0,0,0,0]},{"header":{"parameterUnit":"m.s-1","parameterCategory":2,"la1":30.2991,"la2":30.254,"lo1":-89.0895,"lo2":-89.0444,"dy":0.0017,"dx":0.0017,"nx":28,"ny":28,"refTime":"2024-02-14T03:00:00:Z","depth":"4","parameterNumber":3,"parameterNumberName":"V-component_of_CURRENTS"},"data":[0,0,0,0,0,0,0,0,0,0,0,0,0,0,0,0,0,0,0,0,0,0,0,0,0,0,0,0,0,0,0,0,0,0,0,0,0,0,0,0,0,0,0,0,0,0,0,0,0,0,0,0,0,0,0,0,0,0,-0.0151,-0.0151,0,-0.0092,-0.0091,-0.0091,-0.0066,-0.0066,-0.0066,-0.0066,0.0,0.0002,0.0004,0,0,0,0,0,0,0,0,0,0,0,0,0,-0.0196,-0.0195,-0.0151,-0.0151,-0.015,-0.0092,-0.0091,-0.0091,-0.0066,-0.0066,-0.0066,-0.0066,-0.0,0.0002,0.0004,0,0,0,0,0,0,0,0,0,0,0,0,0,-0.016,-0.0195,-0.0152,-0.0131,-0.0128,-0.0092,-0.0091,-0.009,-0.0066,-0.0066,-0.0066,-0.0066,-0.0001,0.0002,0.0005,0.0027,0,0,0.0013,0.0015,0,0,0,0,0,0,0,0,-0.0162,-0.0159,-0.0135,-0.0132,-0.0129,-0.0087,-0.0083,-0.0051,-0.0066,-0.0089,-0.0066,-0.0066,-0.0028,-0.0023,-0.0011,0.003,0.0033,0.0014,0.0015,0.0017,0.0017,0,0,0,0,0,0,0,-0.0165,-0.0161,-0.0128,-0.0134,-0.0131,-0.0108,-0.0104,-0.0076,-0.0058,-0.0087,-0.0085,-0.0079,-0.0027,-0.0014,-0.0009,0.0033,0.0014,0.0016,0.0018,0.0019,0.0086,0.0086,0,0,0,0,0,0,-0.0175,-0.0163,-0.0129,-0.0126,-0.0147,-0.0108,-0.0103,-0.01,-0.0058,-0.0052,-0.0079,-0.0078,-0.0019,-0.0013,-0.0007,0.0013,0.0017,0.0019,0.0021,0.0086,0.0086,0.0086,0,0,0,0,0,0,-0.0176,-0.0173,-0.0132,-0.0143,-0.0137,-0.0107,-0.0104,-0.0099,-0.0087,-0.0052,-0.0046,-0.0073,-0.0019,-0.0011,0.0017,0.0016,0.0021,0.0023,0.0086,0.0086,0.0086,0.0058,0,0,0,0,0,0,-0.0178,-0.0174,-0.0173,-0.0144,-0.0136,-0.0115,-0.0104,-0.0097,-0.0083,-0.0082,-0.0045,-0.0039,-0.0018,0.0012,0.0019,0.002,0.0025,0.0086,0.0086,0.0086,0.0059,0.0057,0.0056,0,0,0,0,0,-0.018,-0.0179,-0.0174,-0.0169,-0.0138,-0.0115,-0.0109,-0.0088,-0.0083,-0.0078,-0.0053,-0.004,0.0018,0.0015,0.0023,0.0024,0.0086,0.0086,0.0086,0.006,0.0057,0.0056,0,0,0,0,0,0,-0.0193,-0.0175,-0.0169,-0.0162,-0.0143,-0.0111,-0.0104,-0.009,-0.0065,-0.0065,-0.0034,-0.0026,-0.0004,0.0016,0.0011,0.0044,0.0052,0.0054,0.0029,0.0027,0.0026,0.0016,0.0028,0,0,0,0,0,-0.0197,-0.0196,-0.0172,-0.0166,-0.016,-0.0133,-0.012,-0.0107,-0.0082,-0.0072,-0.0046,-0.002,0.0004,0.0019,0.0043,0.0066,0.0087,0.007,0.0068,0.0067,0.0064,0.0099,0.01,0.0086,0.0086,0.0086,0,0,-0.02,-0.0191,-0.0189,-0.017,-0.0155,-0.0149,-0.0126,-0.0111,-0.0104,-0.0068,-0.005,-0.0023,0.0008,0.003,0.0042,0.0047,0.0082,0.0067,0.0066,0.0064,0.0099,0.01,0.0102,0.0087,0.0087,0.0087,0,0,-0.021,-0.02,-0.0205,-0.0191,-0.0173,-0.0158,-0.0157,-0.0127,-0.0113,-0.009,-0.0065,-0.0038,-0.0001,0.0023,0.004,0.0045,0.0071,0.005,0.0037,0.0071,0.0072,0.0073,0.0103,0.0107,0.0051,0.0051,0.0051,0,-0.0215,-0.0219,-0.02,-0.02,-0.0194,-0.0167,-0.017,-0.0149,-0.0113,-0.0101,-0.0091,-0.0033,-0.0005,0.0025,0.0026,0.0041,0.0063,0.0041,0.0068,0.007,0.0072,0.0102,0.0107,0.0049,0.005,0.005,0.005,0,-0.0227,-0.0232,-0.0232,-0.023,-0.0219,-0.0216,-0.019,-0.0179,-0.0161,-0.0134,-0.01,-0.0056,-0.0022,-0.0009,0.0011,0.0039,0.005,0.0061,0.0072,0.0072,0.0103,0.0109,0.0048,0.0048,0.0048,0.0049,0,0,-0.0239,-0.0243,-0.0245,-0.0256,-0.0236,-0.0233,-0.0223,-0.0204,-0.0202,-0.0155,-0.0139,-0.0088,-0.0059,-0.0038,-0.0005,0.0028,0.0062,0.0047,0.0049,0.0073,0.0134,0.0124,0.013,0.0078,0.0078,0.0079,0.015,0,-0.0257,-0.0278,-0.0268,-0.0287,-0.0297,-0.0274,-0.027,-0.0246,-0.022,-0.0196,-0.0137,-0.0106,-0.0071,-0.0054,-0.0015,0.0042,0.0076,0.0042,0.0133,0.0136,0.0124,0.0136,0.0082,0.0154,0.0156,0.0157,0.0157,0,-0.0271,-0.0287,-0.0312,-0.033,-0.0331,-0.0336,-0.0333,-0.0323,-0.0277,-0.0252,-0.0203,-0.0154,-0.0092,-0.0068,0.0036,0.0013,0.0068,0.0114,0.0118,0.0122,0.0136,0.0155,0.0168,0.0167,0.0167,0.0166,0.0165,0,-0.0297,-0.0319,-0.0346,-0.0349,-0.0358,-0.0367,-0.0369,-0.0339,-0.0334,-0.0281,-0.0268,-0.0183,-0.0141,-0.0058,0.0043,0.004,0.0154,0.0163,0.0208,0.0208,0.0208,0.0206,0.0231,0.0231,0.0231,0.0231,0.0231,0,-0.0317,-0.0341,-0.0366,-0.038,-0.0418,-0.0402,-0.0425,-0.0412,-0.0384,-0.0377,-0.0297,-0.0269,-0.0137,-0.0054,0.0035,0.0141,0.0152,0.0208,0.0227,0.0194,0.019,0.0212,0.0209,0.0233,0.0233,0.0232,0.0232,0,-0.0335,-0.035,-0.0391,-0.042,-0.0432,-0.0456,-0.0473,-0.0485,-0.0451,-0.0439,-0.0421,-0.0323,-0.0213,-0.0084,0.0057,0.0124,0.0228,0.0262,0.0218,0.0233,0.0262,0.0256,0.0317,0.0317,0.0317,0.0317,0.0317,0,-0.0344,-0.0367,-0.0427,-0.046,-0.0477,-0.051,-0.0534,-0.0519,-0.0522,-0.0474,-0.0466,-0.036,-0.0283,-0.0088,0.0046,0.022,0.024,0.0293,0.0278,0.0258,0.0271,0.0265,0.026,0.0318,0.0318,0.0318,0.0318,0,-0.0366,-0.0392,-0.0429,-0.05,-0.0542,-0.0586,-0.061,-0.0616,-0.0591,-0.0566,-0.0497,-0.0386,-0.0261,-0.0098,0.0043,0.0164,0.0259,0.0296,0.0296,0.0283,0.0261,0.0272,0.0266,0.0319,0.0319,0.0319,0.0318,0,-0.0382,-0.0419,-0.0474,-0.0534,-0.0594,-0.0639,-0.065,-0.0644,-0.0638,-0.0573,-0.0553,-0.0409,-0.0316,-0.0127,-0.0002,0.0123,0.015,0.0181,0.0188,0.0189,0.013,0.0082,0.0103,0,0,0,0,0,-0.0391,-0.0438,-0.0502,-0.057,-0.063,-0.0664,-0.0692,-0.069,-0.0665,-0.0626,-0.0585,-0.0466,-0.0267,-0.0175,-0.0053,-0.0003,0.0166,0.0142,0.0204,0.0323,0.0322,0.0274,0,0,0,0,0,0,-0.0402,-0.0463,-0.0503,-0.0584,-0.0634,-0.0695,-0.0718,-0.0705,-0.0669,-0.0627,-0.0518,-0.0449,-0.0251,-0.0339,-0.0055,-0.0016,0.0037,0.0243,0.0245,0.0323,0.0323,0.0322,0.0272,0,0,0,0,0]}]]